Year,Month,Day,Hour,Minute,Value (Times are PST for temperature in C)
2021,12,26,00,00,-7.80
2021,12,26,00,01,-7.80
2021,12,26,00,02,-7.80
2021,12,26,00,03,-7.80
2021,12,26,00,04,-7.80
2021,12,26,00,05,-7.80
2021,12,26,00,06,-7.80
2021,12,26,00,07,-7.80
2021,12,26,00,08,-7.90
2021,12,26,00,09,-7.90
2021,12,26,00,10,-7.90
2021,12,26,00,11,-7.90
2021,12,26,00,12,-7.90
2021,12,26,00,13,-7.90
2021,12,26,00,14,-7.90
2021,12,26,00,15,-7.90
2021,12,26,00,16,-7.90
2021,12,26,00,17,-7.90
2021,12,26,00,18,-7.90
2021,12,26,00,19,-7.90
2021,12,26,00,20,-7.90
2021,12,26,00,21,-7.90
2021,12,26,00,22,-7.90
2021,12,26,00,23,-7.90
2021,12,26,00,24,-7.90
2021,12,26,00,25,-7.90
2021,12,26,00,26,-7.90
2021,12,26,00,27,-7.90
2021,12,26,00,28,-7.90
2021,12,26,00,29,-7.90
2021,12,26,00,30,-7.90
2021,12,26,00,31,-7.90
2021,12,26,00,32,-7.90
2021,12,26,00,33,-7.90
2021,12,26,00,34,-7.90
2021,12,26,00,35,-7.90
2021,12,26,00,36,-7.90
2021,12,26,00,37,-7.90
2021,12,26,00,38,-7.90
2021,12,26,00,39,-7.90
2021,12,26,00,40,-7.90
2021,12,26,00,41,-7.90
2021,12,26,00,42,-7.90
2021,12,26,00,43,-7.90
2021,12,26,00,44,-7.90
2021,12,26,00,45,-7.90
2021,12,26,00,46,-7.90
2021,12,26,00,47,-7.90
2021,12,26,00,48,-7.90
2021,12,26,00,49,-7.90
2021,12,26,00,50,-7.90
2021,12,26,00,51,-7.90
2021,12,26,00,52,-7.90
2021,12,26,00,53,-7.90
2021,12,26,00,54,-7.90
2021,12,26,00,55,-7.90
2021,12,26,00,56,-7.90
2021,12,26,00,57,-7.90
2021,12,26,00,58,-7.90
2021,12,26,00,59,-7.90
2021,12,26,01,00,-7.90
2021,12,26,01,01,-7.90
2021,12,26,01,02,-7.90
2021,12,26,01,03,-7.90
2021,12,26,01,04,-7.90
2021,12,26,01,05,-7.90
2021,12,26,01,06,-7.90
2021,12,26,01,07,-7.90
2021,12,26,01,08,-7.90
2021,12,26,01,09,-8.10
2021,12,26,01,10,-8.20
2021,12,26,01,11,-8.20
2021,12,26,01,12,-8.20
2021,12,26,01,13,-8.20
2021,12,26,01,14,-8.20
2021,12,26,01,15,-8.20
2021,12,26,01,16,-8.20
2021,12,26,01,17,-8.20
2021,12,26,01,18,-8.20
2021,12,26,01,19,-8.20
2021,12,26,01,20,-8.20
2021,12,26,09,32,-10.50
2021,12,26,09,33,-10.50
2021,12,26,09,34,-10.40
2021,12,26,09,35,-10.40
2021,12,26,09,36,-10.30
2021,12,26,09,37,-10.30
2021,12,26,09,38,-10.30
2021,12,26,09,39,-10.20
2021,12,26,09,40,-10.20
2021,12,26,09,41,-10.10
2021,12,26,09,42,-10.10
2021,12,26,09,43,-10.10
2021,12,26,09,44,-10.00
2021,12,26,09,45,-9.90
2021,12,26,09,46,-9.90
2021,12,26,09,47,-9.90
2021,12,26,09,48,-9.80
2021,12,26,09,49,-9.80
2021,12,26,09,50,-9.80
2021,12,26,09,51,-9.70
2021,12,26,09,52,-9.70
2021,12,26,09,53,-9.70
2021,12,26,09,54,-9.60
2021,12,26,09,55,-9.60
2021,12,26,09,56,-9.50
2021,12,26,09,57,-9.40
2021,12,26,09,58,-9.40
2021,12,26,09,59,-9.40
2021,12,26,10,00,-9.40
2021,12,26,10,01,-9.40
2021,12,26,10,02,-9.40
2021,12,26,10,03,-9.40
2021,12,26,10,04,-9.40
2021,12,26,10,05,-9.40
2021,12,26,10,06,-9.40
2021,12,26,10,07,-9.30
2021,12,26,10,08,-9.30
2021,12,26,10,09,-9.30
2021,12,26,10,10,-9.30
2021,12,26,10,11,-9.30
2021,12,26,10,12,-9.30
2021,12,26,10,13,-9.30
2021,12,26,10,14,-9.30
2021,12,26,10,15,-9.30
2021,12,26,10,16,-9.30
2021,12,26,10,17,-9.30
2021,12,26,10,18,-9.20
2021,12,26,10,19,-9.20
2021,12,26,10,20,-9.20
2021,12,26,10,21,-9.20
2021,12,26,10,22,-9.30
2021,12,26,10,23,-9.30
2021,12,26,10,24,-9.30
2021,12,26,10,25,-9.30
2021,12,26,10,26,-9.30
2021,12,26,10,27,-9.20
2021,12,26,10,28,-9.20
2021,12,26,10,29,-9.20
2021,12,26,10,30,-9.20
2021,12,26,10,31,-9.20
2021,12,26,10,32,-9.20
2021,12,26,10,33,-9.20
2021,12,26,10,34,-9.20
2021,12,26,10,35,-9.10
2021,12,26,10,36,-9.10
2021,12,26,10,37,-9.10
2021,12,26,10,38,-9.10
2021,12,26,10,39,-9.10
2021,12,26,10,40,-9.10
2021,12,26,10,41,-9.10
2021,12,26,10,42,-9.10
2021,12,26,10,43,-9.10
2021,12,26,10,44,-9.10
2021,12,26,10,45,-9.10
2021,12,26,10,46,-9.10
2021,12,26,10,47,-9.00
2021,12,26,10,48,-9.00
2021,12,26,10,49,-9.00
2021,12,26,10,50,-9.00
2021,12,26,10,51,-9.10
2021,12,26,10,52,-9.10
2021,12,26,10,53,-9.10
2021,12,26,10,54,-9.10
2021,12,26,10,55,-9.10
2021,12,26,10,56,-9.10
2021,12,26,10,57,-9.10
2021,12,26,10,58,-9.20
2021,12,26,10,59,-9.20
2021,12,26,11,00,-9.20
2021,12,26,11,01,-9.20
2021,12,26,11,02,-9.20
2021,12,26,11,03,-9.20
2021,12,26,11,04,-9.20
2021,12,26,11,05,-9.20
2021,12,26,11,06,-9.20
2021,12,26,11,07,-9.20
2021,12,26,11,08,-9.20
2021,12,26,11,09,-9.20
2021,12,26,11,10,-9.20
2021,12,26,11,11,-9.20
2021,12,26,11,12,-9.20
2021,12,26,11,13,-9.20
2021,12,26,11,14,-9.20
2021,12,26,11,15,-9.20
2021,12,26,11,16,-9.30
2021,12,26,11,17,-9.30
2021,12,26,11,18,-9.30
2021,12,26,11,19,-9.30
2021,12,26,11,20,-9.30
2021,12,26,11,21,-9.30
2021,12,26,11,22,-9.30
2021,12,26,11,23,-9.30
2021,12,26,11,24,-9.30
2021,12,26,11,25,-9.30
2021,12,26,11,26,-9.30
2021,12,26,11,27,-9.30
2021,12,26,11,28,-9.30
2021,12,26,11,29,-9.30
2021,12,26,11,30,-9.30
2021,12,26,11,31,-9.30
2021,12,26,11,32,-9.30
2021,12,26,11,33,-9.30
2021,12,26,11,34,-9.30
2021,12,26,11,35,-9.30
2021,12,26,11,36,-9.30
2021,12,26,11,37,-9.20
2021,12,26,11,38,-9.20
2021,12,26,11,39,-9.20
2021,12,26,11,40,-9.10
2021,12,26,11,41,-9.10
2021,12,26,11,42,-9.00
2021,12,26,11,43,-9.00
2021,12,26,11,44,-8.90
2021,12,26,11,45,-8.90
2021,12,26,11,46,-8.80
2021,12,26,11,47,-8.80
2021,12,26,11,48,-8.70
2021,12,26,11,49,-8.70
2021,12,26,11,50,-8.60
2021,12,26,11,51,-8.60
2021,12,26,11,52,-8.60
2021,12,26,11,53,-8.50
2021,12,26,11,54,-8.50
2021,12,26,11,55,-8.50
2021,12,26,11,56,-8.50
2021,12,26,11,57,-8.50
2021,12,26,11,58,-8.50
2021,12,26,11,59,-8.50
2021,12,26,12,00,-8.50
2021,12,26,12,01,-8.40
2021,12,26,12,02,-8.40
2021,12,26,12,03,-8.40
2021,12,26,12,04,-8.30
2021,12,26,12,05,-8.30
2021,12,26,12,06,-8.30
2021,12,26,12,07,-8.30
2021,12,26,12,08,-8.30
2021,12,26,12,09,-8.30
2021,12,26,12,10,-8.30
2021,12,26,12,11,-8.30
2021,12,26,12,12,-8.30
2021,12,26,12,13,-8.30
2021,12,26,12,14,-8.30
2021,12,26,12,15,-8.30
2021,12,26,12,16,-8.30
2021,12,26,12,17,-8.30
2021,12,26,12,18,-8.30
2021,12,26,12,19,-8.30
2021,12,26,12,20,-8.30
2021,12,26,12,21,-8.30
2021,12,26,12,22,-8.40
2021,12,26,12,23,-8.40
2021,12,26,12,24,-8.40
2021,12,26,12,25,-8.50
2021,12,26,12,26,-8.50
2021,12,26,12,27,-8.40
2021,12,26,12,28,-8.40
2021,12,26,12,29,-8.40
2021,12,26,12,30,-8.40
2021,12,26,12,31,-8.40
2021,12,26,12,32,-8.40
2021,12,26,12,33,-8.40
2021,12,26,12,34,-8.40
2021,12,26,12,35,-8.40
2021,12,26,12,36,-8.40
2021,12,26,12,37,-8.40
2021,12,26,12,38,-8.50
2021,12,26,12,39,-8.50
2021,12,26,12,40,-8.50
2021,12,26,12,41,-8.50
2021,12,26,12,42,-8.40
2021,12,26,12,43,-8.50
2021,12,26,12,44,-8.50
2021,12,26,12,45,-8.50
2021,12,26,12,46,-8.50
2021,12,26,12,47,-8.50
2021,12,26,12,48,-8.40
2021,12,26,12,49,-8.40
2021,12,26,12,50,-8.40
2021,12,26,12,51,-8.40
2021,12,26,12,52,-8.40
2021,12,26,12,53,-8.40
2021,12,26,12,54,-8.40
2021,12,26,12,55,-8.40
2021,12,26,12,56,-8.40
2021,12,26,12,57,-8.40
2021,12,26,12,58,-8.50
2021,12,26,12,59,-8.50
2021,12,26,13,00,-8.50
2021,12,26,13,01,-8.40
2021,12,26,13,02,-8.40
2021,12,26,13,03,-8.40
2021,12,26,13,04,-8.40
2021,12,26,13,05,-8.40
2021,12,26,13,06,-8.50
2021,12,26,13,07,-8.50
2021,12,26,13,08,-8.50
2021,12,26,13,09,-8.50
2021,12,26,13,10,-8.50
2021,12,26,13,11,-8.50
2021,12,26,13,12,-8.50
2021,12,26,13,13,-8.50
2021,12,26,13,14,-8.50
2021,12,26,13,15,-8.50
2021,12,26,13,16,-8.40
2021,12,26,13,17,-8.50
2021,12,26,13,18,-8.40
2021,12,26,13,19,-8.40
2021,12,26,13,20,-8.40
2021,12,26,13,21,-8.40
2021,12,26,13,22,-8.40
2021,12,26,13,23,-8.40
2021,12,26,13,24,-8.40
2021,12,26,13,25,-8.40
2021,12,26,13,26,-8.40
2021,12,26,13,27,-8.30
2021,12,26,13,28,-8.30
2021,12,26,13,29,-8.30
2021,12,26,13,30,-8.30
2021,12,26,13,31,-8.30
2021,12,26,13,32,-8.30
2021,12,26,13,33,-8.30
2021,12,26,13,34,-8.30
2021,12,26,13,35,-8.30
2021,12,26,13,36,-8.40
2021,12,26,13,37,-8.40
2021,12,26,13,38,-8.40
2021,12,26,13,39,-8.40
2021,12,26,13,40,-8.40
2021,12,26,13,41,-8.40
2021,12,26,13,42,-8.40
2021,12,26,13,43,-8.40
2021,12,26,13,44,-8.40
2021,12,26,13,45,-8.40
2021,12,26,13,46,-8.40
2021,12,26,13,47,-8.40
2021,12,26,13,48,-8.40
2021,12,26,13,49,-8.50
2021,12,26,13,50,-8.40
2021,12,26,13,51,-8.40
2021,12,26,13,52,-8.40
2021,12,26,13,53,-8.40
2021,12,26,13,54,-8.40
2021,12,26,13,55,-8.40
2021,12,26,13,56,-8.50
2021,12,26,13,57,-8.50
2021,12,26,13,58,-8.50
2021,12,26,13,59,-8.50
2021,12,26,14,00,-8.40
2021,12,26,14,01,-8.50
2021,12,26,14,02,-8.40
2021,12,26,14,03,-8.40
2021,12,26,14,04,-8.40
2021,12,26,14,05,-8.40
2021,12,26,14,06,-8.40
2021,12,26,14,07,-8.40
2021,12,26,14,08,-8.40
2021,12,26,14,09,-8.40
2021,12,26,14,10,-8.40
2021,12,26,14,11,-8.40
2021,12,26,14,12,-8.40
2021,12,26,14,13,-8.40
2021,12,26,14,14,-8.40
2021,12,26,14,15,-8.40
2021,12,26,14,16,-8.40
2021,12,26,14,17,-8.40
2021,12,26,14,18,-8.40
2021,12,26,14,19,-8.40
2021,12,26,14,20,-8.40
2021,12,26,14,21,-8.30
2021,12,26,14,22,-8.30
2021,12,26,14,23,-8.40
2021,12,26,14,24,-8.40
2021,12,26,14,25,-8.40
2021,12,26,14,26,-8.40
2021,12,26,14,27,-8.40
2021,12,26,14,28,-8.40
2021,12,26,14,29,-8.40
2021,12,26,14,30,-8.40
2021,12,26,14,31,-8.40
2021,12,26,14,32,-8.40
2021,12,26,14,33,-8.40
2021,12,26,14,34,-8.40
2021,12,26,14,35,-8.40
2021,12,26,14,36,-8.40
2021,12,26,14,37,-8.40
2021,12,26,14,38,-8.40
2021,12,26,14,39,-8.40
2021,12,26,14,40,-8.40
2021,12,26,14,41,-8.40
2021,12,26,14,42,-8.40
2021,12,26,14,43,-8.50
2021,12,26,14,44,-8.50
2021,12,26,14,45,-8.50
2021,12,26,14,46,-8.50
2021,12,26,14,47,-8.50
2021,12,26,14,48,-8.50
2021,12,26,14,49,-8.50
2021,12,26,14,50,-8.50
2021,12,26,14,51,-8.40
2021,12,26,14,52,-8.50
2021,12,26,14,53,-8.50
2021,12,26,14,54,-8.50
2021,12,26,14,55,-8.50
2021,12,26,14,56,-8.50
2021,12,26,14,57,-8.50
2021,12,26,14,58,-8.50
2021,12,26,14,59,-8.50
2021,12,26,15,00,-8.50
2021,12,26,15,01,-8.50
2021,12,26,15,02,-8.50
2021,12,26,15,03,-8.50
2021,12,26,15,04,-8.50
2021,12,26,15,05,-8.50
2021,12,26,15,06,-8.50
2021,12,26,15,07,-8.50
2021,12,26,15,08,-8.50
2021,12,26,15,09,-8.50
2021,12,26,15,10,-8.50
2021,12,26,15,11,-8.50
2021,12,26,15,12,-8.50
2021,12,26,15,13,-8.60
2021,12,26,15,14,-8.60
2021,12,26,15,15,-8.60
2021,12,26,15,16,-8.60
2021,12,26,15,17,-8.60
2021,12,26,15,18,-8.60
2021,12,26,15,19,-8.60
2021,12,26,15,20,-8.60
2021,12,26,15,21,-8.60
2021,12,26,15,22,-8.60
2021,12,26,15,23,-8.60
2021,12,26,15,24,-8.60
2021,12,26,15,25,-8.60
2021,12,26,15,26,-8.60
2021,12,26,15,27,-8.60
2021,12,26,15,28,-8.60
2021,12,26,15,29,-8.60
2021,12,26,15,30,-8.60
2021,12,26,15,31,-8.60
2021,12,26,15,32,-8.60
2021,12,26,15,33,-8.60
2021,12,26,15,34,-8.60
2021,12,26,15,35,-8.60
2021,12,26,15,36,-8.60
2021,12,26,15,37,-8.60
2021,12,26,15,38,-8.60
2021,12,26,15,39,-8.60
2021,12,26,15,40,-8.60
2021,12,26,15,41,-8.60
2021,12,26,15,42,-8.60
2021,12,26,15,43,-8.60
2021,12,26,15,44,-8.60
2021,12,26,15,45,-8.60
2021,12,26,15,46,-8.60
2021,12,26,15,47,-8.60
2021,12,26,15,48,-8.60
2021,12,26,15,49,-8.60
2021,12,26,15,50,-8.60
2021,12,26,15,51,-8.60
2021,12,26,15,52,-8.60
2021,12,26,15,53,-8.60
2021,12,26,15,54,-8.60
2021,12,26,15,55,-8.60
2021,12,26,15,56,-8.60
2021,12,26,15,57,-8.60
2021,12,26,15,58,-8.60
2021,12,26,15,59,-8.60
2021,12,26,16,00,-8.70
2021,12,26,16,01,-8.70
2021,12,26,16,02,-8.70
2021,12,26,16,03,-8.70
2021,12,26,16,04,-8.70
2021,12,26,16,05,-8.70
2021,12,26,16,06,-8.70
2021,12,26,16,07,-8.70
2021,12,26,16,08,-8.70
2021,12,26,16,09,-8.70
2021,12,26,16,10,-8.70
2021,12,26,16,11,-8.70
2021,12,26,16,12,-8.70
2021,12,26,16,13,-8.70
2021,12,26,16,14,-8.70
2021,12,26,16,15,-8.70
2021,12,26,16,16,-8.70
2021,12,26,16,17,-8.70
2021,12,26,16,18,-8.70
2021,12,26,16,19,-8.70
2021,12,26,16,20,-8.70
2021,12,26,16,21,-8.70
2021,12,26,16,22,-8.70
2021,12,26,16,23,-8.70
2021,12,26,16,24,-8.70
2021,12,26,16,25,-8.70
2021,12,26,16,26,-8.70
2021,12,26,16,27,-8.70
2021,12,26,16,28,-8.70
2021,12,26,16,29,-8.70
2021,12,26,16,30,-8.70
2021,12,26,16,31,-8.70
2021,12,26,16,32,-8.70
2021,12,26,16,33,-8.70
2021,12,26,16,34,-8.70
2021,12,26,16,35,-8.70
2021,12,26,16,36,-8.70
2021,12,26,16,37,-8.70
2021,12,26,16,38,-8.70
2021,12,26,16,39,-8.70
2021,12,26,16,40,-8.70
2021,12,26,16,41,-8.70
2021,12,26,16,42,-8.70
2021,12,26,16,43,-8.70
2021,12,26,16,44,-8.70
2021,12,26,16,45,-8.70
2021,12,26,16,46,-8.70
2021,12,26,16,47,-8.80
2021,12,26,16,48,-8.80
2021,12,26,16,49,-8.80
2021,12,26,16,50,-8.80
2021,12,26,16,51,-8.70
2021,12,26,16,52,-8.70
2021,12,26,16,53,-8.70
2021,12,26,16,54,-8.70
2021,12,26,16,55,-8.70
2021,12,26,16,56,-8.70
2021,12,26,16,57,-8.70
2021,12,26,16,58,-8.70
2021,12,26,16,59,-8.70
2021,12,26,17,00,-8.70
2021,12,26,17,01,-8.70
2021,12,26,17,02,-8.70
2021,12,26,17,03,-8.70
2021,12,26,17,04,-8.70
2021,12,26,17,05,-8.70
2021,12,26,17,06,-8.70
2021,12,26,17,07,-8.70
2021,12,26,17,08,-8.70
2021,12,26,17,09,-8.70
2021,12,26,17,10,-8.70
2021,12,26,17,11,-8.70
2021,12,26,17,12,-8.70
2021,12,26,17,13,-8.70
2021,12,26,17,14,-8.70
2021,12,26,17,15,-8.70
2021,12,26,17,16,-8.70
2021,12,26,17,17,-8.70
2021,12,26,17,18,-8.70
2021,12,26,17,19,-8.70
2021,12,26,17,20,-8.70
2021,12,26,17,21,-8.70
2021,12,26,17,22,-8.70
2021,12,26,17,23,-8.70
2021,12,26,17,24,-8.70
2021,12,26,17,25,-8.70
2021,12,26,17,26,-8.70
2021,12,26,17,27,-8.70
2021,12,26,17,28,-8.70
2021,12,26,17,29,-8.70
2021,12,26,17,30,-8.80
2021,12,26,17,31,-8.80
2021,12,26,17,32,-8.80
2021,12,26,17,33,-8.80
2021,12,26,17,34,-8.80
2021,12,26,17,35,-8.80
2021,12,26,17,36,-8.80
2021,12,26,17,37,-8.80
2021,12,26,17,38,-8.80
2021,12,26,17,39,-8.80
2021,12,26,17,40,-8.80
2021,12,26,17,41,-8.80
2021,12,26,17,42,-8.80
2021,12,26,17,43,-8.80
2021,12,26,17,44,-8.80
2021,12,26,17,45,-8.80
2021,12,26,17,46,-8.70
2021,12,26,17,47,-8.70
2021,12,26,17,48,-8.70
2021,12,26,17,49,-8.70
2021,12,26,17,50,-8.70
2021,12,26,17,51,-8.70
2021,12,26,17,52,-8.70
2021,12,26,17,53,-8.70
2021,12,26,17,54,-8.70
2021,12,26,17,55,-8.70
2021,12,26,17,56,-8.80
2021,12,26,17,57,-8.70
2021,12,26,17,58,-8.70
2021,12,26,17,59,-8.70
2021,12,26,18,00,-8.70
2021,12,26,18,01,-8.70
2021,12,26,18,02,-8.70
2021,12,26,18,03,-8.70
2021,12,26,18,04,-8.80
2021,12,26,18,05,-8.80
2021,12,26,18,06,-8.80
2021,12,26,18,07,-8.80
2021,12,26,18,08,-8.80
2021,12,26,18,09,-8.80
2021,12,26,18,10,-8.80
2021,12,26,18,11,-8.80
2021,12,26,18,12,-8.80
2021,12,26,18,13,-8.80
2021,12,26,18,14,-8.80
2021,12,26,18,15,-8.80
2021,12,26,18,16,-8.80
2021,12,26,18,17,-8.80
2021,12,26,18,18,-8.80
2021,12,26,18,19,-8.80
2021,12,26,18,20,-8.80
2021,12,26,18,21,-8.80
2021,12,26,18,22,-8.80
2021,12,26,18,23,-8.80
2021,12,26,18,24,-8.80
2021,12,26,18,25,-8.80
2021,12,26,18,26,-8.80
2021,12,26,18,27,-8.80
2021,12,26,18,28,-8.80
2021,12,26,18,29,-8.80
2021,12,26,18,30,-8.80
2021,12,26,18,31,-8.80
2021,12,26,18,32,-8.80
2021,12,26,18,33,-8.80
2021,12,26,18,34,-8.80
2021,12,26,18,35,-8.80
2021,12,26,18,36,-8.80
2021,12,26,18,37,-8.80
2021,12,26,18,38,-8.80
2021,12,26,18,39,-8.80
2021,12,26,18,40,-8.80
2021,12,26,18,41,-8.80
2021,12,26,18,42,-8.80
2021,12,26,18,43,-8.80
2021,12,26,18,44,-8.80
2021,12,26,18,45,-8.90
2021,12,26,18,46,-8.90
2021,12,26,18,47,-8.90
2021,12,26,18,48,-8.90
2021,12,26,18,49,-8.90
2021,12,26,18,50,-8.90
2021,12,26,18,51,-8.90
2021,12,26,18,52,-8.90
2021,12,26,18,53,-8.90
2021,12,26,18,54,-8.90
2021,12,26,18,55,-8.90
2021,12,26,18,56,-8.90
2021,12,26,18,57,-8.90
2021,12,26,18,58,-8.90
2021,12,26,18,59,-8.90
2021,12,26,19,00,-8.90
2021,12,26,19,01,-9.00
2021,12,26,19,02,-9.00
2021,12,26,19,03,-9.00
2021,12,26,19,04,-9.00
2021,12,26,19,05,-9.00
2021,12,26,19,06,-9.00
2021,12,26,19,07,-9.00
2021,12,26,19,08,-9.00
2021,12,26,19,09,-9.00
2021,12,26,19,10,-9.00
2021,12,26,19,11,-9.00
2021,12,26,19,12,-9.00
2021,12,26,19,13,-9.00
2021,12,26,19,14,-9.00
2021,12,26,19,15,-9.00
2021,12,26,19,16,-9.00
2021,12,26,19,17,-9.00
2021,12,26,19,18,-9.00
2021,12,26,19,19,-9.00
2021,12,26,19,20,-9.10
2021,12,26,19,21,-9.00
2021,12,26,19,22,-9.10
2021,12,26,19,23,-9.10
2021,12,26,19,24,-9.10
2021,12,26,19,25,-9.10
2021,12,26,19,26,-9.10
2021,12,26,19,27,-9.10
2021,12,26,19,28,-9.10
2021,12,26,19,29,-9.10
2021,12,26,19,30,-9.10
2021,12,26,19,31,-9.10
2021,12,26,19,32,-9.10
2021,12,26,19,33,-9.10
2021,12,26,19,34,-9.20
2021,12,26,19,35,-9.10
2021,12,26,19,36,-9.10
2021,12,26,19,37,-9.10
2021,12,26,19,38,-9.20
2021,12,26,19,39,-9.20
2021,12,26,19,40,-9.20
2021,12,26,19,41,-9.20
2021,12,26,19,42,-9.20
2021,12,26,19,43,-9.20
2021,12,26,19,44,-9.20
2021,12,26,19,45,-9.20
2021,12,26,19,46,-9.20
2021,12,26,19,47,-9.10
2021,12,26,19,48,-9.10
2021,12,26,19,49,-9.10
2021,12,26,19,50,-9.10
2021,12,26,19,51,-9.10
2021,12,26,19,52,-9.10
2021,12,26,19,53,-9.10
2021,12,26,19,54,-9.10
2021,12,26,19,55,-9.10
2021,12,26,19,56,-9.10
2021,12,26,19,57,-9.10
2021,12,26,19,58,-9.10
2021,12,26,19,59,-9.10
2021,12,26,20,00,-9.10
2021,12,26,20,01,-9.20
2021,12,26,20,02,-9.20
2021,12,26,20,03,-9.20
2021,12,26,20,04,-9.20
2021,12,26,20,05,-9.20
2021,12,26,20,06,-9.20
2021,12,26,20,07,-9.20
2021,12,26,20,08,-9.20
2021,12,26,20,09,-9.20
2021,12,26,20,10,-9.20
2021,12,26,20,11,-9.20
2021,12,26,20,12,-9.20
2021,12,26,20,13,-9.20
2021,12,26,20,14,-9.20
2021,12,26,20,15,-9.20
2021,12,26,20,16,-9.20
2021,12,26,20,17,-9.30
2021,12,26,20,18,-9.30
2021,12,26,20,19,-9.30
2021,12,26,20,20,-9.30
2021,12,26,20,21,-9.30
2021,12,26,20,22,-9.30
2021,12,26,20,23,-9.30
2021,12,26,20,24,-9.30
2021,12,26,20,25,-9.30
2021,12,26,20,26,-9.30
2021,12,26,20,27,-9.30
2021,12,26,20,28,-9.30
2021,12,26,20,29,-9.30
2021,12,26,20,30,-9.30
2021,12,26,20,31,-9.40
2021,12,26,20,32,-9.30
2021,12,26,20,33,-9.40
2021,12,26,20,34,-9.40
2021,12,26,20,35,-9.40
2021,12,26,20,36,-9.40
2021,12,26,20,37,-9.40
2021,12,26,20,38,-9.40
2021,12,26,20,39,-9.40
2021,12,26,20,40,-9.40
2021,12,26,20,41,-9.40
2021,12,26,20,42,-9.40
2021,12,26,20,43,-9.40
2021,12,26,20,44,-9.40
2021,12,26,20,45,-9.40
2021,12,26,20,46,-9.50
2021,12,26,20,47,-9.50
2021,12,26,20,48,-9.50
2021,12,26,20,49,-9.50
2021,12,26,20,50,-9.50
2021,12,26,20,51,-9.50
2021,12,26,20,52,-9.50
2021,12,26,20,53,-9.50
2021,12,26,20,54,-9.50
2021,12,26,20,55,-9.50
2021,12,26,20,56,-9.60
2021,12,26,20,57,-9.60
2021,12,26,20,58,-9.60
2021,12,26,20,59,-9.60
2021,12,26,21,00,-9.60
2021,12,26,21,01,-9.60
2021,12,26,21,02,-9.60
2021,12,26,21,03,-9.60
2021,12,26,21,04,-9.60
2021,12,26,21,05,-9.60
2021,12,26,21,06,-9.60
2021,12,26,21,07,-9.60
2021,12,26,21,08,-9.60
2021,12,26,21,09,-9.60
2021,12,26,21,10,-9.60
2021,12,26,21,11,-9.60
2021,12,26,21,12,-9.60
2021,12,26,21,13,-9.60
2021,12,26,21,14,-9.60
2021,12,26,21,15,-9.60
2021,12,26,21,16,-9.60
2021,12,26,21,17,-9.60
2021,12,26,21,18,-9.60
2021,12,26,21,19,-9.60
2021,12,26,21,20,-9.60
2021,12,26,21,21,-9.60
2021,12,26,21,22,-9.70
2021,12,26,21,23,-9.70
2021,12,26,21,24,-9.70
2021,12,26,21,25,-9.70
2021,12,26,21,26,-9.70
2021,12,26,21,27,-9.70
2021,12,26,21,28,-9.70
2021,12,26,21,29,-9.70
2021,12,26,21,30,-9.70
2021,12,26,21,31,-9.70
2021,12,26,21,32,-9.70
2021,12,26,21,33,-9.70
2021,12,26,21,34,-9.70
2021,12,26,21,35,-9.70
2021,12,26,21,36,-9.70
2021,12,26,21,37,-9.70
2021,12,26,21,38,-9.70
2021,12,26,21,39,-9.70
2021,12,26,21,40,-9.70
2021,12,26,21,41,-9.70
2021,12,26,21,42,-9.70
2021,12,26,21,43,-9.70
2021,12,26,21,44,-9.70
2021,12,26,21,45,-9.70
2021,12,26,21,46,-9.70
2021,12,26,21,47,-9.80
2021,12,26,21,48,-9.80
2021,12,26,21,49,-9.80
2021,12,26,21,50,-9.80
2021,12,26,21,51,-9.80
2021,12,26,21,52,-9.80
2021,12,26,21,53,-9.80
2021,12,26,21,54,-9.80
2021,12,26,21,55,-9.80
2021,12,26,21,56,-9.80
2021,12,26,21,57,-9.80
2021,12,26,21,58,-9.80
2021,12,26,21,59,-9.90
2021,12,26,22,00,-9.90
2021,12,26,22,01,-9.90
2021,12,26,22,02,-9.90
2021,12,26,22,03,-9.90
2021,12,26,22,04,-9.90
2021,12,26,22,05,-9.90
2021,12,26,22,06,-9.90
2021,12,26,22,07,-10.00
2021,12,26,22,08,-10.00
2021,12,26,22,09,-10.00
2021,12,26,22,10,-10.00
2021,12,26,22,11,-10.10
2021,12,26,22,12,-10.10
2021,12,26,22,13,-10.10
2021,12,26,22,14,-10.10
2021,12,26,22,15,-10.20
2021,12,26,22,16,-10.20
2021,12,26,22,17,-10.20
2021,12,26,22,18,-10.20
2021,12,26,22,19,-10.30
2021,12,26,22,20,-10.30
2021,12,26,22,21,-10.30
2021,12,26,22,22,-10.30
2021,12,26,22,23,-10.30
2021,12,26,22,24,-10.30
2021,12,26,22,25,-10.30
2021,12,26,22,26,-10.30
2021,12,26,22,27,-10.30
2021,12,26,22,28,-10.40
2021,12,26,22,29,-10.40
2021,12,26,22,30,-10.40
2021,12,26,22,31,-10.40
2021,12,26,22,32,-10.40
2021,12,26,22,33,-10.40
2021,12,26,22,34,-10.40
2021,12,26,22,35,-10.40
2021,12,26,22,36,-10.40
2021,12,26,22,37,-10.50
2021,12,26,22,38,-10.50
2021,12,26,22,39,-10.50
2021,12,26,22,40,-10.60
2021,12,26,22,41,-10.60
2021,12,26,22,42,-10.60
2021,12,26,22,43,-10.60
2021,12,26,22,44,-10.60
2021,12,26,22,45,-10.60
2021,12,26,22,46,-10.70
2021,12,26,22,47,-10.70
2021,12,26,22,48,-10.70
2021,12,26,22,49,-10.70
2021,12,26,22,50,-10.70
2021,12,26,22,51,-10.80
2021,12,26,22,52,-10.80
2021,12,26,22,53,-10.80
2021,12,26,22,54,-10.90
2021,12,26,22,55,-10.90
2021,12,26,22,56,-10.90
2021,12,26,22,57,-11.00
2021,12,26,22,58,-11.00
2021,12,26,22,59,-11.00
2021,12,26,23,00,-11.10
2021,12,26,23,01,-11.10
2021,12,26,23,02,-11.10
2021,12,26,23,03,-11.10
2021,12,26,23,04,-11.20
2021,12,26,23,05,-11.20
2021,12,26,23,06,-11.20
2021,12,26,23,07,-11.30
2021,12,26,23,08,-11.30
2021,12,26,23,09,-11.30
2021,12,26,23,10,-11.40
2021,12,26,23,11,-11.40
2021,12,26,23,12,-11.40
2021,12,26,23,13,-11.50
2021,12,26,23,14,-11.50
2021,12,26,23,15,-11.50
2021,12,26,23,16,-11.60
2021,12,26,23,17,-11.60
2021,12,26,23,18,-11.60
2021,12,26,23,19,-11.60
2021,12,26,23,20,-11.60
2021,12,26,23,21,-11.60
2021,12,26,23,22,-11.60
2021,12,26,23,23,-11.70
2021,12,26,23,24,-11.70
2021,12,26,23,25,-11.70
2021,12,26,23,26,-11.70
2021,12,26,23,27,-11.80
2021,12,26,23,28,-11.80
2021,12,26,23,29,-11.80
2021,12,26,23,30,-11.80
2021,12,26,23,31,-11.80
2021,12,26,23,32,-11.80
2021,12,26,23,33,-11.80
2021,12,26,23,34,-11.80
2021,12,26,23,35,-11.90
2021,12,26,23,36,-11.90
2021,12,26,23,37,-11.90
2021,12,26,23,38,-12.00
2021,12,26,23,39,-12.00
2021,12,26,23,40,-12.10
2021,12,26,23,41,-12.00
2021,12,26,23,42,-12.00
2021,12,26,23,43,-12.00
2021,12,26,23,44,-12.00
2021,12,26,23,45,-12.00
2021,12,26,23,46,-12.00
2021,12,26,23,47,-12.10
2021,12,26,23,48,-12.10
2021,12,26,23,49,-12.10
2021,12,26,23,50,-12.20
2021,12,26,23,51,-12.20
2021,12,26,23,52,-12.20
2021,12,26,23,53,-12.20
2021,12,26,23,54,-12.30
2021,12,26,23,55,-12.30
2021,12,26,23,56,-12.30
2021,12,26,23,57,-12.30
2021,12,26,23,58,-12.30
2021,12,26,23,59,-12.30
